Orbital Elements at Epoch 2459200.5 (2020-Dec-17.0) TDB
Reference: JPL 18 (heliocentric ecliptic J2000)
Element | Value | Uncertainty (1-sigma) | Units |
e | .1587563679161711 | 3.8556e-08 | |
a | 2.319671771969666 | 9.0924e-09 | au |
q | 1.951409106694094 | 8.6931e-08 | au |
i | 6.584328621258875 | 7.7268e-06 | deg |
node | 32.2560594176822 | 4.4351e-05 | deg |
peri | 245.0296172014013 | 5.6314e-05 | deg |
M | 90.1571762349448 | 3.4346e-05 | deg |
tp | 2458877.326282912238 (2020-Jan-28.82628291) | 0.00012308 | TDB |
period | 1290.441238403607 3.53 | 7.5872e-06 2.077e-08 | d yr |
n | .278974345585354 | 1.6402e-09 | deg/d |
Q | 2.687934437245239 | 1.0536e-08 | au |
|
| | Orbit Determination Parameters
Additional Information
|